Wind_Speed
44 44 42 40 39 40 42 42 41 42 42 42 42 43 43 44 44 43 42 41 40 40 40 39 39 38 37 34 33 34 36 36 37 38 40 42 43 42 42 43 45 46 46 47 48 49 48 48 48 48 48 48 48 46 45 43 42 41 40 39 39 40 40 39 39 38 37 36 34 34 33 33 32 31 30 30 30 29 29 29 29 29 29 28 27 26
46 45 43 41 41 43 44 44 43 44 44 44 44 45 45 45 45 44 42 41 41 41 40 40 40 39 38 35 34 35 35 35 35 35 37 39 38 38 38 39 39 39 40 41 41 42 42 42 42 43 43 42 42 41 41 39 38 36 35 35 35 36 36 36 36 35 34 32 31 30 30 30 29 29 28 28 28 27 27 27 28 28 28 27 27 26
45 45 42 41 43 44 44 45 45 45 46 46 46 47 47 47 47 45 43 42 42 42 42 42 42 42 40 38 36 37 38 37 35 35 36 36 35 34 35 35 34 34 35 35 36 37 37 37 38 38 38 38 38 38 37 36 35 34 33 33 33 33 34 34 33 32 31 30 29 28 28 28 28 27 27 26 26 26 26 26 27 28 28 28 27 26
43 42 40 41 43 43 44 46 46 47 47 48 48 48 49 48 47 46 44 44 44 44 44 44 44 44 43 41 40 40 41 40 38 36 36 35 34 34 34 34 32 31 32 32 33 33 34 34 35 35 35 35 36 35 35 34 34 33 32 31 31 31 31 32 31 30 29 27 27 26 26 26 26 26 26 26 26 26 26 26 27 27 28 28 27 26
40 38 38 39 40 40 42 43 45 46 47 47 48 49 49 49 48 47 46 45 45 45 45 45 45 45 45 45 43 42 43 43 41 39 38 37 35 34 34 33 32 31 31 32 32 32 33 33 33 34 34 35 34 33 32 32 33 33 32 31 30 30 30 31 30 29 28 26 26 26 26 26 26 26 26 26 27 27 27 27 28 27 27 28 27 26
37 36 36 36 36 37 38 40 41 42 43 44 45 47 48 47 47 47 46 46 46 45 45 45 46 46 47 47 47 45 45 45 43 42 41 39 37 35 34 33 33 33 34 35 35 34 34 34 34 34 34 34 32 30 29 30 31 32 32 31 30 29 30 30 30 29 28 27 28 28 28 27 27 27 27 28 28 28 28 29 29 28 28 28 27 27
37 35 36 35 35 37 37 38 38 38 39 40 42 43 43 44 45 45 46 47 47 46 45 45 46 46 47 49 49 48 48 47 45 44 42 41 40 38 37 35 35 36 38 39 39 38 37 36 35 35 35 34 33 30 28 28 29 31 32 31 30 30 30 30 29 29 28 29 30 30 30 29 29 29 28 28 29 29 30 30 30 29 28 28 28 28
38 37 37 37 37 38 39 39 38 38 39 39 40 40 40 41 41 42 44 45 45 45 45 45 45 45 47 50 51 50 49 48 47 46 44 42 42 42 41 39 39 40 40 42 43 43 41 40 39 39 38 37 35 32 30 29 29 30 31 32 32 32 32 32 31 30 30 30 31 31 31 31 30 31 31 30 30 30 30 30 30 29 29 29 29 28
41 39 39 40 41 41 41 41 40 40 40 41 41 40 40 39 39 40 40 41 41 42 44 45 46 45 46 50 53 51 50 49 48 47 45 44 43 43 43 43 45 45 45 45 47 46 44 43 43 42 41 40 39 37 35 34 33 32 33 34 34 34 35 34 33 32 32 32 32 32 32 31 31 32 32 32 32 31 30 29 29 30 30 30 30 29
43 42 41 42 44 45 44 43 43 43 43 44 44 43 42 41 40 40 39 40 39 40 42 44 44 44 45 48 51 50 50 50 49 47 47 46 46 45 45 46 48 49 49 50 50 49 47 46 45 45 44 43 43 42 41 39 38 37 37 37 38 38 38 37 36 35 35 35 34 34 33 33 32 32 33 33 33 32 31 30 30 30 31 31 31 30
45 45 44 45 46 47 46 46 46 46 46 46 46 46 45 44 43 42 42 42 40 40 42 42 41 41 42 45 48 49 50 51 49 48 48 48 48 48 48 48 48 50 52 53 52 51 50 49 48 47 47 46 46 45 44 42 42 41 41 41 41 41 41 40 39 38 38 37 37 37 36 35 34 33 33 33 33 33 32 32 31 31 32 32 32 32
46 46 47 47 48 48 48 48 48 48 48 48 48 48 48 47 46 45 45 45 44 43 45 43 41 40 40 42 45 47 49 50 50 49 49 49 50 50 50 50 49 50 53 53 52 52 52 51 51 50 50 50 50 49 47 46 45 45 45 44 44 43 43 42 42 41 40 39 40 39 39 38 37 36 35 35 34 33 33 32 32 32 33 33 33 33
48 48 48 48 49 49 49 49 49 49 50 50 50 50 50 49 48 49 49 48 47 47 47 46 44 43 42 43 45 47 47 48 49 49 49 50 51 52 52 52 52 52 53 53 52 52 52 52 52 52 52 52 52 51 50 49 48 49 48 47 46 45 44 44 44 43 42 42 41 41 41 41 41 40 39 37 36 35 34 33 33 33 34 34 34 34
50 49 49 49 50 49 49 50 50 50 50 50 51 51 51 51 51 51 51 51 50 50 49 49 48 47 47 47 47 48 48 48 49 50 50 50 51 52 52 53 53 53 54 54 54 53 53 53 53 53 54 54 53 52 52 51 50 51 51 49 49 48 47 46 46 45 44 43 43 43 43 43 43 43 42 41 40 38 37 35 34 34 35 35 36 36
51 51 51 51 51 51 51 51 51 51 51 52 52 52 52 53 53 52 53 53 52 51 51 51 50 50 50 50 50 50 50 50 51 52 53 53 53 53 53 53 54 54 54 55 55 55 55 55 55 55 56 56 55 55 54 53 52 53 52 51 50 50 50 50 49 48 47 46 45 44 44 44 44 44 44 44 43 42 41 39 38 37 36 36 37 37
52 52 52 52 52 52 53 53 52 53 53 53 53 53 54 55 54 54 54 55 54 53 52 52 52 52 52 52 52 52 52 52 53 54 56 56 55 56 56 56 57 57 56 56 56 56 56 56 57 57 58 57 57 57 56 55 55 55 54 53 52 51 51 51 52 52 51 50 49 48 48 47 46 45 45 45 45 44 44 43 42 40 39 39 39 39
51 53 53 52 52 53 54 54 54 54 55 55 55 55 56 56 56 56 56 56 56 55 54 54 54 54 54 54 54 54 54 54 55 55 56 57 58 59 59 60 60 61 60 59 59 58 57 57 57 59 60 59 58 58 58 58 57 57 57 57 55 54 53 53 53 54 54 53 52 52 51 51 50 49 48 47 46 46 45 45 45 44 43 42 41 41
50 52 53 52 52 53 53 54 55 55 55 56 57 57 57 56 57 57 57 57 56 56 56 56 56 55 55 55 56 56 57 57 57 57 57 58 59 60 61 62 63 63 63 62 62 62 61 60 60 61 62 61 61 60 59 59 59 59 59 60 58 56 56 56 56 56 56 55 54 54 54 53 53 52 51 50 49 48 47 47 47 47 46 46 45 45
50 50 52 53 53 53 53 54 55 55 56 57 57 57 57 57 57 56 56 56 56 56 55 55 56 55 54 55 56 57 58 59 59 59 59 59 59 61 62 63 64 64 64 64 64 64 65 63 62 63 64 64 64 63 63 62 61 61 61 61 60 59 59 59 59 59 58 57 57 57 57 56 55 54 53 53 52 52 51 50 50 49 49 49 49 49
50 50 52 53 54 54 54 54 55 55 55 55 55 55 55 55 55 55 54 53 53 54 53 53 53 52 52 53 53 54 55 56 57 57 57 58 58 60 61 62 64 64 65 65 64 65 66 65 63 64 66 66 66 66 66 65 65 65 64 63 63 62 61 61 61 61 60 60 59 59 58 58 57 56 56 56 56 55 55 54 53 52 52 52 52 52
51 51 52 53 54 54 54 54 54 54 54 53 53 53 52 53 53 53 52 51 50 51 50 49 49 49 49 50 50 50 51 51 52 52 52 53 55 56 58 59 60 62 63 64 64 65 66 65 63 63 65 67 67 67 67 67 67 67 66 66 66 65 65 64 64 63 63 63 62 61 60 60 59 59 59 59 59 59 58 57 56 55 55 55 55 55
52 51 51 51 52 52 53 53 53 53 53 53 53 52 52 52 52 51 50 49 48 48 48 47 46 46 47 48 48 47 47 48 50 50 49 49 50 52 53 54 56 57 59 60 61 62 63 63 62 62 63 65 66 67 67 67 67 67 67 67 67 67 67 67 67 66 66 66 66 65 64 63 62 62 62 61 61 62 62 61 60 58 58 58 58 58
52 51 50 50 51 51 52 52 52 53 52 53 53 53 52 52 52 51 50 48 48 47 46 46 45 44 45 47 47 47 47 48 49 49 49 49 49 50 51 52 53 55 56 57 58 60 61 61 60 60 61 63 64 66 66 65 65 66 66 67 67 68 68 69 69 69 68 69 69 69 68 67 67 67 65 64 64 65 64 64 62 61 61 60 60 60
51 50 49 49 50 51 51 51 52 52 52 52 53 53 53 53 53 53 51 50 49 47 47 48 45 44 46 48 48 48 49 50 51 52 52 52 51 52 52 53 53 54 55 56 57 59 59 60 59 59 59 61 62 62 63 63 63 63 64 65 66 67 68 69 70 69 69 70 71 71 70 71 71 70 68 68 69 68 67 66 65 64 63 63 63 62
52 51 50 50 50 50 51 51 51 52 52 51 52 53 54 55 55 55 54 53 51 49 50 50 47 46 49 49 50 51 51 52 53 54 55 55 54 54 54 54 55 55 56 57 58 58 59 59 59 59 59 60 61 61 62 63 62 62 62 63 65 66 67 68 67 67 67 68 69 70 70 72 72 72 71 72 72 72 72 70 68 67 66 66 66 65
52 52 52 51 51 50 51 52 51 51 52 52 53 54 55 56 56 56 56 55 53 52 52 52 50 50 51 51 52 53 53 54 55 56 57 58 58 58 58 57 57 57 58 59 59 59 60 60 60 60 60 60 61 61 62 63 63 63 63 63 65 66 67 67 66 64 65 67 67 67 69 70 71 72 73 73 74 74 74 73 72 72 70 69 68 68
53 53 53 53 52 51 51 52 52 52 52 52 53 54 55 56 56 57 56 56 56 55 53 53 54 53 53 55 56 56 56 56 57 58 59 60 61 61 61 61 61 61 61 61 61 61 62 62 61 61 61 62 62 63 63 64 65 66 65 65 65 66 67 68 66 65 66 67 67 67 68 69 70 71 72 73 73 74 74 75 75 75 74 73 72 71
53 53 53 53 53 52 51 51 52 52 52 53 54 55 56 56 56 57 57 58 59 58 55 57 59 56 55 58 59 59 59 58 58 59 61 62 63 64 64 64 64 64 65 65 64 64 64 64 64 63 63 64 64 65 66 66 67 68 68 67 67 67 68 69 68 68 68 68 68 69 69 70 70 70 71 71 72 72 73 74 75 76 76 75 74 74
53 52 53 53 53 52 52 52 52 53 53 54 55 56 57 58 57 58 60 61 62 61 60 62 62 59 59 62 62 61 61 60 61 61 62 63 64 64 65 65 66 66 66 67 67 67 67 66 66 66 65 66 66 67 68 69 69 69 70 69 69 69 69 69 69 69 70 70 70 70 71 71 71 71 71 71 71 71 71 72 73 74 75 75 74 74
53 53 53 54 54 54 54 54 54 55 55 55 55 57 59 60 61 61 63 65 66 65 64 65 64 60 62 66 67 66 65 64 64 64 64 65 66 66 67 67 67 67 67 67 68 69 70 69 69 68 68 68 68 69 70 71 71 71 71 71 71 71 71 70 70 70 71 72 72 72 72 73 73 73 72 72 71 71 71 71 70 71 72 71 72 73
55 55 55 56 56 55 57 58 58 59 58 56 57 59 61 63 65 66 67 68 69 68 67 68 65 61 64 70 70 68 68 68 67 67 67 68 68 69 69 69 70 70 69 69 69 70 71 72 72 71 71 71 71 71 72 73 73 74 73 73 73 73 73 72 71 71 72 73 73 74 74 74 74 74 74 74 73 73 72 71 70 70 68 67 69 73
58 58 58 59 58 57 60 63 63 63 61 57 58 62 65 67 68 68 69 70 71 70 70 70 66 63 67 72 71 69 69 70 70 70 69 69 70 71 71 71 71 71 71 71 71 71 72 73 74 74 74 74 74 74 74 74 75 75 75 75 75 74 74 73 73 72 73 74 75 75 76 76 76 76 75 75 75 74 73 72 71 71 69 68 70 73
62 63 63 64 62 60 63 65 67 67 64 60 61 67 70 70 70 70 70 71 72 72 72 70 68 67 69 72 72 71 70 70 71 71 71 72 73 73 72 72 72 72 72 72 72 73 73 74 75 75 76 76 76 76 76 76 76 76 76 75 75 75 75 74 74 73 74 75 76 76 77 77 77 77 76 76 76 75 75 75 74 73 70 69 70 73
66 67 67 67 66 64 64 66 68 67 65 63 66 70 71 71 71 72 71 72 72 73 72 71 70 70 70 71 73 73 72 72 73 73 73 74 74 74 74 73 73 73 73 73 73 74 74 75 76 77 78 78 79 79 79 78 78 78 77 76 76 76 75 75 75 74 75 76 77 78 78 78 78 77 77 77 77 76 76 76 76 75 73 71 71 72
67 68 69 69 68 67 66 67 68 66 64 66 68 69 70 71 72 73 73 73 72 72 72 71 70 70 71 71 72 73 74 74 75 75 74 75 75 75 75 74 74 74 73 73 74 74 75 76 77 78 79 80 80 81 81 81 80 79 79 78 77 77 77 76 76 76 76 77 78 78 79 79 78 78 78 78 78 78 77 77 76 76 75 75 74 74
67 69 70 71 71 70 69 70 69 67 66 67 68 69 70 71 72 73 73 73 73 73 72 72 71 71 71 71 72 74 75 76 77 77 76 75 75 75 74 74 74 74 74 73 73 74 75 75 76 77 78 79 80 80 81 81 81 80 80 80 79 79 79 78 78 78 78 78 79 79 79 79 78 78 78 78 78 77 77 77 77 76 76 76 75 75
70 71 72 72 73 73 73 73 72 70 69 69 69 70 70 71 72 72 73 72 73 73 73 73 73 73 72 72 73 74 75 76 78 79 78 77 76 75 74 73 73 73 73 73 72 73 74 74 75 75 76 77 78 79 80 80 80 80 80 80 81 81 80 80 80 80 80 80 80 79 79 79 78 78 79 79 78 77 76 76 77 77 77 76 75 75
73 73 73 74 74 74 75 74 73 72 71 70 71 72 71 72 73 73 73 73 72 73 73 73 74 74 74 74 74 75 76 77 78 79 78 77 77 75 74 73 72 71 72 71 71 72 72 72 72 72 72 73 74 75 76 76 77 77 78 79 80 80 80 80 81 81 81 81 80 79 79 78 78 78 78 78 78 77 76 75 75 76 77 76 75 75
76 75 75 76 75 76 76 75 74 73 73 72 73 73 74 74 75 75 75 73 72 73 74 74 74 75 75 75 75 76 77 78 78 78 78 77 76 75 74 73 72 71 71 70 69 69 68 68 68 68 68 69 70 71 72 72 73 73 74 75 76 76 77 79 80 80 80 79 79 79 78 78 77 77 77 77 77 76 75 74 74 75 76 76 76 76
79 78 77 77 77 76 76 76 75 75 75 74 75 76 76 76 77 77 76 73 73 75 75 75 75 75 74 75 75 76 77 77 77 78 77 76 75 74 73 72 71 70 69 68 67 65 65 65 64 65 65 66 68 69 70 70 70 69 70 70 71 71 73 75 76 77 76 76 76 75 75 75 75 75 75 75 75 74 74 73 74 74 74 75 76 78
81 80 79 79 78 77 76 76 75 76 76 77 78 78 77 77 78 78 76 75 75 76 76 75 75 74 72 72 73 73 74 74 75 75 75 74 73 72 71 70 69 68 67 66 65 63 63 63 62 62 63 64 65 66 68 68 67 66 66 66 66 67 70 71 71 71 71 71 71 71 71 71 71 72 72 72 72 72 72 73 73 73 73 74 75 77
82 82 81 80 79 77 76 75 75 75 76 76 77 77 76 76 76 76 76 75 75 75 74 73 73 71 70 69 70 70 71 71 71 71 72 71 70 69 68 67 66 66 65 64 63 62 61 60 60 60 60 61 62 62 63 63 62 62 62 62 63 66 68 68 67 67 67 67 67 66 66 67 68 69 69 69 68 68 69 70 71 71 72 73 74 75
82 83 82 81 79 77 75 74 74 73 73 73 73 72 72 73 73 73 73 73 73 72 71 70 70 69 68 67 67 68 68 68 67 67 67 67 67 67 67 66 65 64 63 62 62 61 59 58 58 58 58 58 59 59 60 59 57 58 58 59 62 66 66 66 65 64 64 64 63 62 62 63 64 65 65 65 64 63 65 67 68 69 69 70 72 73
80 80 80 79 78 76 75 73 72 71 70 70 69 68 69 70 70 70 69 70 70 69 68 67 68 67 66 66 65 65 65 65 65 65 65 65 65 65 65 64 64 63 62 62 61 60 58 57 56 57 56 57 57 57 57 56 55 55 56 58 61 64 64 63 63 62 61 61 60 59 59 59 60 61 60 60 59 60 62 64 64 65 67 68 70 71
78 77 76 76 76 76 74 73 72 71 69 68 66 66 67 67 68 68 67 67 68 67 66 65 66 66 65 63 62 62 62 62 63 63 63 63 64 63 62 62 62 61 61 61 60 59 57 55 54 54 54 55 55 55 54 53 52 51 53 56 60 61 61 61 59 58 58 58 57 56 56 57 57 58 57 56 56 58 60 61 62 63 65 67 68 69
75 74 73 73 74 73 72 72 72 72 70 68 66 65 65 66 66 65 65 64 65 65 64 63 63 63 63 62 61 60 60 60 61 61 61 61 61 61 61 60 60 60 60 60 59 58 56 54 53 52 52 53 54 53 52 52 50 49 51 55 58 59 58 57 54 53 54 55 54 54 54 55 56 56 55 54 55 58 60 60 61 62 65 68 69 68
70 70 70 69 69 69 69 70 72 71 69 68 67 67 66 65 64 63 62 61 61 61 62 62 61 61 61 60 59 59 58 59 58 58 58 58 57 58 58 58 59 60 59 58 58 58 56 54 52 52 51 51 53 53 51 51 50 49 50 53 54 53 52 50 48 49 51 52 52 53 54 55 55 56 55 54 55 58 59 60 61 64 68 70 68 64
65 66 66 66 65 65 66 68 70 68 68 68 68 68 67 65 63 61 59 59 59 59 59 59 59 59 59 59 58 57 56 56 56 55 55 56 56 56 57 57 57 57 58 58 59 58 57 54 53 53 52 52 53 53 52 52 51 50 49 50 50 49 47 46 47 49 50 52 52 53 54 54 54 54 54 55 56 58 59 59 62 66 70 70 66 62
61 62 63 63 63 64 66 67 67 65 65 67 68 68 66 64 62 61 59 57 57 57 56 56 56 56 56 56 57 56 54 54 54 53 53 54 55 56 57 57 56 56 57 58 58 58 56 56 55 54 53 53 54 53 52 51 50 48 47 48 47 46 46 47 49 51 53 53 53 53 53 53 53 54 55 56 57 58 59 60 63 66 68 67 66 64
60 61 61 60 61 63 65 67 65 63 62 66 68 66 64 62 60 59 58 57 56 55 54 54 54 54 54 54 55 54 53 53 53 53 52 53 55 57 57 57 56 56 56 57 57 57 57 56 56 55 56 57 55 52 49 48 47 46 45 44 45 45 46 47 49 51 51 50 50 51 52 53 54 56 56 57 56 57 58 60 61 64 65 64 64 63
59 59 59 59 59 60 63 64 63 61 60 63 65 64 62 60 57 55 56 57 57 56 54 52 51 52 53 53 53 52 51 51 53 53 52 53 55 57 57 57 57 56 56 56 56 56 56 56 56 56 57 56 54 50 49 48 46 44 43 43 44 45 45 45 46 47 47 47 47 50 52 54 54 55 55 55 55 56 57 58 59 60 61 61 61 61
Wind_Direction
256 256 257 258 258 257 256 256 256 255 255 254 254 254 254 254 254 255 255 256 257 258 259 259 259 260 260 260 262 263 264 265 265 266 267 267 267 268 268 269 269 271 272 273 272 272 272 272 272 272 272 273 273 273 272 272 271 271 270 268 267 267 268 268 268 268 267 267 266 265 264 262 261 259 259 259 258 258 257 257 257 256 254 251 247 245
258 258 258 258 256 255 256 256 256 256 256 255 255 254 254 254 255 255 255 256 258 258 259 258 258 258 258 257 258 261 262 263 265 267 268 269 270 271 271 271 272 273 274 275 275 275 275 274 273 272 272 273 273 273 273 273 272 271 269 266 265 265 266 267 267 268 268 267 266 264 262 261 259 258 258 258 257 256 255 255 255 254 252 248 244 240
258 259 258 257 256 256 256 257 257 257 257 257 256 256 256 256 256 256 256 257 257 258 258 258 258 258 257 255 255 257 259 260 262 264 267 270 272 272 273 273 275 276 277 278 278 277 276 275 274 273 273 273 272 272 273 273 272 270 268 265 264 264 265 266 267 267 267 267 266 263 261 259 258 258 258 258 257 254 253 253 254 253 250 246 240 237
258 259 259 257 257 257 257 257 257 257 257 258 258 258 258 259 259 258 258 257 257 257 258 258 259 259 258 256 254 254 257 259 259 260 263 267 270 272 274 275 276 278 279 279 278 277 276 274 273 273 272 272 271 272 272 273 272 270 267 265 264 263 262 263 264 265 266 266 264 262 260 258 258 257 257 257 255 253 253 253 254 252 249 244 239 235
259 260 260 259 259 259 259 259 259 259 258 259 259 259 260 261 261 260 259 258 257 257 258 258 259 259 259 258 255 253 255 257 258 258 260 263 266 269 273 276 277 278 278 276 274 272 272 271 271 271 270 270 270 271 271 270 270 270 268 266 263 261 259 260 261 262 263 264 263 260 258 257 256 256 256 255 254 253 253 253 253 252 247 242 239 237
261 261 261 260 260 260 259 259 260 260 261 260 260 260 260 261 261 261 260 259 257 257 257 258 258 259 259 259 258 255 254 255 256 257 259 261 264 266 269 270 272 272 271 270 269 268 268 269 270 270 270 270 270 270 269 268 267 267 267 266 264 261 258 258 258 258 259 259 259 259 258 256 255 255 254 253 253 252 253 253 252 250 246 242 239 238
263 262 263 262 261 261 260 260 260 261 262 262 262 261 261 261 261 260 260 259 259 258 257 257 257 258 259 259 258 257 256 256 256 257 258 260 261 262 261 261 262 263 264 265 266 265 266 268 269 269 270 271 271 271 269 266 264 263 264 264 263 260 260 260 259 257 255 255 255 256 257 257 257 257 255 254 253 252 251 251 250 248 245 242 239 238
264 263 263 263 262 262 261 261 262 262 263 263 263 263 262 262 261 261 260 261 261 260 258 257 256 256 258 259 259 258 258 258 258 258 257 257 258 258 258 258 258 257 257 259 261 261 262 264 265 266 268 269 270 270 267 264 262 260 260 259 258 257 258 261 261 259 256 254 253 253 254 256 258 259 258 257 256 254 251 249 247 246 245 243 240 239
264 263 263 263 262 262 262 263 263 263 263 263 263 263 263 263 262 262 262 262 261 260 259 257 255 254 255 258 261 260 260 259 259 259 258 257 256 257 257 257 256 256 255 255 256 257 259 260 261 262 264 265 266 266 264 262 260 258 257 255 253 252 253 256 258 257 255 254 253 252 253 254 256 258 259 259 259 257 254 250 247 244 244 244 243 242
264 263 262 262 262 262 262 263 263 263 262 263 263 263 263 263 263 263 263 263 261 261 260 258 257 257 256 258 261 262 261 260 259 259 259 258 257 255 255 254 255 257 256 255 255 257 257 257 259 260 261 261 261 261 261 260 259 258 256 254 252 251 251 252 253 254 253 252 252 252 252 253 254 256 257 258 259 259 257 253 249 246 244 244 244 245
263 263 262 261 261 262 263 262 263 263 262 262 263 263 263 263 263 263 263 263 262 262 261 261 260 260 259 258 260 262 262 262 261 260 259 259 258 257 255 254 255 256 257 257 257 258 258 258 258 258 259 260 260 260 260 260 259 258 256 254 252 252 252 252 252 252 250 249 250 250 251 252 254 255 256 258 258 259 259 257 253 250 248 246 246 246
262 263 262 261 261 262 262 262 262 262 262 262 263 264 264 264 263 263 262 262 262 261 262 262 262 261 260 260 261 261 262 263 263 262 261 260 259 258 257 256 255 256 257 258 259 259 260 260 259 258 258 259 260 260 260 260 259 258 257 256 255 254 253 252 252 252 251 249 248 248 249 250 252 254 255 257 258 259 259 259 257 254 252 251 249 249
263 263 263 263 262 262 262 263 262 262 263 263 264 264 264 264 264 263 262 262 261 261 262 263 263 261 260 260 261 261 263 264 265 264 263 262 261 260 259 258 257 256 258 259 259 260 261 261 261 261 260 260 260 259 259 259 258 258 258 258 258 257 256 255 254 253 252 251 250 249 248 248 250 251 253 255 257 258 258 259 258 257 255 253 252 252
264 264 264 264 264 264 264 264 264 264 264 264 264 264 264 264 264 264 263 263 263 262 262 263 263 262 261 260 260 260 261 263 264 265 264 263 263 263 262 261 260 258 258 259 259 260 260 261 261 261 261 261 261 260 260 259 259 258 258 258 259 259 259 258 257 256 255 254 253 252 250 249 249 250 251 252 254 256 257 257 257 257 256 254 253 253
264 264 264 264 265 266 265 265 265 265 265 265 265 266 266 265 265 265 265 265 264 263 263 263 263 262 262 260 260 260 259 260 261 263 264 263 263 264 263 263 262 261 260 260 260 260 261 261 261 261 261 262 262 262 262 262 261 261 260 259 259 259 259 259 259 259 257 256 255 254 254 253 251 251 251 251 252 253 254 255 255 255 255 254 254 253
264 265 265 265 266 266 266 267 267 266 266 266 266 266 266 266 266 266 266 266 265 265 264 264 263 263 262 262 261 260 259 259 259 260 261 262 263 263 263 263 263 263 262 261 260 260 260 261 261 262 262 262 262 262 263 263 263 263 263 262 260 259 259 259 259 259 258 257 256 256 255 254 253 253 252 251 251 251 252 252 253 253 253 253 253 252
265 266 266 266 267 267 268 268 268 268 268 267 267 266 266 266 266 266 266 266 266 266 265 264 263 263 262 262 262 261 260 259 258 258 259 260 261 262 262 262 262 262 262 262 261 261 260 260 261 262 262 262 261 261 261 261 262 262 263 262 261 260 259 259 258 258 257 257 256 256 255 255 254 254 253 252 252 251 251 251 252 251 252 252 252 251
264 266 267 267 267 267 268 269 269 269 269 269 268 268 268 267 267 267 267 266 266 266 265 264 263 262 262 262 262 261 261 260 259 258 257 258 259 260 261 261 261 262 262 262 262 262 262 261 261 261 262 263 263 262 261 261 261 260 261 261 261 260 260 259 258 258 257 257 256 256 255 255 255 254 254 254 253 253 252 252 251 251 251 251 251 250
264 265 267 268 267 267 267 268 269 269 269 269 269 269 269 268 268 267 267 267 267 266 266 265 264 263 263 262 261 261 261 260 260 259 258 258 258 259 261 262 262 262 263 263 263 263 262 261 261 262 262 262 263 263 263 262 261 261 260 261 261 260 259 259 259 258 258 257 256 256 256 256 255 255 255 255 255 254 253 252 251 251 250 250 250 250
265 266 267 269 269 269 268 267 268 268 268 268 269 269 269 269 268 267 266 266 266 266 266 266 266 265 264 262 262 261 262 262 261 260 259 259 259 259 260 262 263 263 263 263 263 263 263 262 261 262 263 263 262 262 263 262 262 261 261 261 261 260 259 259 259 259 259 258 257 256 257 257 257 256 255 255 254 254 253 252 252 251 250 250 249 249
267 267 268 269 271 271 270 269 269 268 268 268 268 269 269 269 269 269 268 267 267 267 266 266 266 267 266 264 263 262 262 263 262 261 260 260 259 259 260 260 262 263 264 264 263 263 263 263 261 262 263 264 263 262 262 261 262 262 262 261 261 260 260 259 259 259 259 259 259 258 257 256 256 256 255 255 254 254 253 252 251 250 250 250 250 249
268 268 268 269 270 271 271 272 272 271 271 271 271 270 269 269 269 270 270 269 269 269 269 268 268 267 267 267 266 264 263 263 263 262 261 260 259 259 259 260 260 262 263 264 264 264 263 263 262 261 262 263 264 264 263 262 262 262 262 262 261 261 260 260 259 259 259 259 259 258 258 257 256 255 255 255 255 255 254 252 251 249 249 249 249 249
269 268 268 268 269 270 271 272 273 273 274 274 274 274 273 273 273 272 272 271 270 269 269 269 267 268 268 267 267 266 265 264 264 263 262 260 259 259 259 259 259 260 261 262 263 264 265 265 264 263 263 263 264 265 265 265 264 264 264 263 263 262 261 260 259 258 258 258 258 258 257 257 257 256 255 255 255 254 254 254 253 251 250 249 248 249
268 267 267 267 267 268 269 270 271 271 272 272 274 275 275 276 275 275 274 274 273 272 271 269 267 266 265 265 265 265 264 264 264 263 263 261 260 259 259 259 260 260 261 262 263 264 265 266 266 265 265 265 265 266 267 267 267 266 266 266 265 264 263 261 260 259 259 258 258 258 257 257 257 256 255 255 254 254 254 253 253 253 252 252 250 249
266 266 265 265 265 265 266 267 267 268 269 270 270 271 272 273 274 275 275 274 274 274 273 271 270 267 265 264 264 264 263 263 263 264 265 265 264 263 262 261 261 261 261 262 262 263 264 265 266 266 266 266 266 267 267 268 268 267 267 267 266 266 265 264 263 262 261 260 260 259 258 258 257 256 255 254 254 254 254 253 253 252 252 252 252 251
265 265 265 264 263 263 264 264 265 265 266 267 268 268 269 270 271 272 273 273 273 272 270 271 270 267 266 266 264 263 262 262 262 263 265 266 266 266 266 264 263 262 262 262 262 263 263 263 264 264 265 265 266 266 266 267 267 267 266 266 266 266 266 266 265 264 263 261 260 259 258 258 257 256 255 254 253 253 253 253 252 252 250 250 250 251
265 265 265 265 264 263 263 263 264 265 265 266 267 267 268 269 270 270 271 272 271 270 270 270 267 265 265 265 264 263 262 261 261 262 263 264 265 265 266 266 265 264 264 263 262 262 263 263 263 264 264 264 265 265 265 266 266 266 266 265 265 265 266 266 266 265 264 263 262 260 259 259 258 257 257 255 254 253 252 252 252 251 251 250 249 249
266 266 266 266 266 265 264 265 266 267 268 268 268 268 268 268 269 270 271 271 271 270 270 269 267 266 266 265 264 264 264 263 263 263 263 263 264 265 266 266 266 266 266 265 264 263 263 263 263 263 263 263 264 264 264 265 265 265 266 265 265 265 265 265 266 265 265 264 264 263 263 262 261 260 259 258 256 254 253 252 251 251 250 250 250 250
268 268 268 268 269 269 269 268 268 268 268 268 269 269 269 269 270 271 272 272 271 270 270 268 269 270 270 269 268 267 266 265 264 263 263 263 263 264 264 265 265 266 266 266 266 266 265 263 263 263 262 262 263 263 263 263 264 264 264 265 264 264 264 265 265 265 265 265 265 264 264 264 264 263 261 260 259 257 255 253 252 251 250 249 249 250
269 269 270 270 270 271 271 270 269 269 268 268 269 271 272 272 272 272 271 270 270 270 270 270 270 272 272 271 270 269 267 266 265 264 263 263 262 262 262 263 263 263 263 264 265 266 266 265 264 263 262 262 262 262 262 262 263 263 263 263 263 263 264 264 264 264 264 265 265 265 264 264 264 264 264 263 262 260 259 256 254 253 252 251 250 248
270 270 270 270 270 271 272 272 270 270 269 270 271 273 273 272 272 271 270 270 271 272 271 271 272 272 271 270 269 269 269 268 267 265 264 263 263 262 262 261 261 261 261 261 262 263 264 265 265 264 264 263 262 262 262 262 262 263 262 262 262 262 262 262 262 262 263 263 264 264 264 264 264 264 264 264 263 262 261 260 258 256 254 253 252 249
271 271 271 271 271 272 272 272 272 272 271 272 273 273 271 270 270 271 272 272 273 273 272 272 273 272 270 270 270 270 269 269 268 267 266 265 263 262 262 261 261 261 261 261 260 261 261 262 263 264 263 263 263 262 262 262 262 263 263 263 263 262 262 262 261 261 261 262 262 262 263 263 263 264 264 264 265 264 264 262 261 258 256 253 253 252
272 272 272 271 271 271 271 271 272 273 274 275 273 271 270 270 271 271 272 272 272 273 273 273 273 272 270 271 271 271 269 269 268 267 266 265 264 263 263 262 262 261 261 261 261 260 260 260 261 261 262 262 262 262 262 262 262 262 262 262 263 263 263 262 261 260 260 260 261 261 261 262 263 263 264 264 264 264 264 264 263 262 259 257 255 256
272 273 272 272 272 271 270 271 271 273 275 274 272 271 272 272 272 272 271 271 271 272 272 273 272 272 271 271 271 271 270 269 268 267 267 266 266 265 265 264 263 262 262 261 261 260 260 260 260 260 260 261 261 262 262 262 262 262 262 262 262 262 262 262 261 260 259 259 259 260 260 260 261 262 262 263 263 263 263 263 264 264 263 261 259 258
273 274 274 275 274 273 272 272 272 273 273 273 272 272 272 272 272 272 272 271 271 271 271 271 271 271 271 271 271 271 271 270 269 268 267 267 267 266 266 266 265 265 264 263 262 261 260 260 259 259 260 260 260 261 261 262 262 262 262 262 261 261 261 261 260 260 259 258 258 258 258 259 259 260 261 262 262 263 263 263 263 263 264 264 263 261
273 274 275 276 276 276 276 275 275 274 273 272 272 272 272 271 271 271 272 272 272 272 272 272 271 271 270 270 271 271 272 272 272 271 270 269 268 268 268 267 267 266 266 265 264 263 262 261 260 260 260 260 260 260 261 261 261 262 262 262 262 261 260 260 260 259 259 258 258 258 258 258 258 259 259 260 261 262 263 264 263 263 262 262 262 262
273 273 274 275 276 276 277 277 277 276 276 275 274 272 272 272 271 271 271 271 271 272 273 273 273 272 272 271 271 271 272 272 272 272 273 272 272 271 271 270 269 268 268 267 266 265 264 263 262 261 260 260 260 260 260 260 261 261 261 262 262 261 261 260 260 259 259 258 258 258 258 258 258 258 259 259 259 260 261 262 264 264 264 263 262 262
273 274 274 275 275 276 276 277 277 277 277 276 275 274 273 272 271 270 270 270 271 272 272 273 273 273 273 273 273 273 272 272 272 272 273 273 274 274 273 272 272 270 269 268 267 266 265 265 264 263 262 261 261 260 260 260 260 260 260 260 261 261 261 260 259 259 258 258 258 258 258 258 258 259 259 259 259 259 259 260 261 263 264 264 263 262
275 275 275 276 276 276 277 277 277 277 277 276 275 274 273 273 272 272 271 272 272 272 272 272 273 273 273 273 273 273 273 273 273 273 274 274 274 274 274 273 273 272 271 269 268 267 266 265 265 264 263 262 262 261 260 260 259 259 259 259 259 260 260 260 259 259 258 258 258 258 258 258 258 258 259 259 259 259 259 259 259 260 261 263 263 262
276 276 276 276 276 276 276 277 277 277 276 276 275 274 274 274 274 274 274 274 274 274 273 273 273 273 273 273 273 273 273 273 274 274 274 274 274 274 274 274 273 272 271 270 269 268 267 266 265 264 263 262 262 261 261 260 259 259 259 259 260 260 260 260 260 260 259 259 259 259 258 258 258 258 258 258 259 259 259 259 259 258 259 260 260 260
276 276 276 276 276 275 275 276 276 276 275 275 274 274 275 275 275 276 276 276 275 275 275 275 274 274 274 274 273 273 273 273 273 273 273 273 273 273 273 273 272 272 272 271 270 269 268 267 266 264 263 262 262 261 261 261 261 261 261 261 262 262 261 260 260 260 260 260 259 259 259 258 258 258 257 257 257 257 258 258 257 257 257 257 257 258
277 277 277 276 276 276 276 275 275 274 274 274 274 274 275 275 275 276 276 276 275 275 275 275 275 275 275 274 273 273 272 272 271 271 272 272 273 272 272 272 272 272 271 271 271 270 269 268 267 266 265 264 263 262 262 262 262 262 262 261 261 260 260 260 259 259 259 259 258 258 258 257 257 257 257 256 256 255 256 256 256 256 255 254 254 255
276 277 277 277 277 276 276 275 274 274 273 273 274 274 274 274 274 274 274 274 274 274 274 274 274 274 274 273 272 272 271 271 271 271 271 271 271 272 272 272 272 271 271 270 270 270 269 268 268 267 265 264 263 262 262 261 260 259 259 259 258 258 258 258 259 259 259 259 259 258 258 258 257 257 257 256 256 255 254 254 254 254 253 253 252 252
275 276 277 277 277 277 277 276 276 275 274 274 274 274 273 273 273 272 272 273 273 273 273 274 273 273 272 271 271 271 271 272 272 272 272 271 271 271 271 271 271 271 271 270 270 269 269 268 267 266 265 264 263 262 261 260 259 258 258 257 257 258 258 258 259 259 260 260 260 259 259 258 258 257 256 256 256 255 254 253 253 254 253 253 252 252
275 275 276 276 277 277 278 278 277 277 275 275 274 273 272 271 271 272 272 272 273 273 273 273 273 272 272 271 271 271 271 271 271 271 271 271 270 270 270 270 270 270 270 270 270 269 268 267 266 265 265 265 264 263 262 261 259 258 257 257 257 258 258 258 259 259 260 261 261 261 260 259 258 258 256 256 255 255 255 254 254 254 254 254 253 252
274 274 275 275 275 276 277 278 278 277 277 276 275 273 272 271 271 271 271 272 272 273 273 272 271 271 272 272 272 271 270 270 269 268 268 268 268 269 269 270 270 269 269 269 269 269 268 266 265 264 263 263 263 263 262 261 259 257 256 255 255 256 257 259 260 260 260 261 261 260 259 258 257 257 256 255 254 254 254 255 255 255 256 255 253 252
273 274 274 274 274 275 276 276 275 276 276 277 276 275 274 273 272 272 272 272 272 272 272 273 272 272 272 272 271 270 270 269 269 268 268 267 267 266 266 266 266 267 267 267 267 267 266 266 265 264 263 263 263 263 263 262 261 258 256 256 257 258 260 260 260 260 259 258 258 257 255 254 254 254 253 252 251 251 251 252 253 255 255 255 254 253
273 273 274 274 274 274 273 273 273 274 275 276 276 276 275 275 275 274 274 273 272 272 272 272 272 272 272 272 271 269 269 268 268 267 267 267 267 266 265 264 264 264 265 266 266 266 267 267 267 266 265 264 264 264 264 263 262 261 261 262 263 264 264 263 262 261 259 257 256 254 254 253 252 252 251 250 249 248 248 249 249 251 254 256 258 257
273 272 273 273 273 273 273 272 273 274 275 276 276 276 276 277 277 277 276 275 274 274 273 272 272 271 271 271 270 269 269 268 267 266 265 265 265 265 264 264 263 263 263 264 265 266 267 268 268 268 268 267 266 264 263 263 264 264 264 264 264 264 264 262 261 259 257 255 254 255 255 254 253 252 250 249 247 247 246 246 246 249 253 256 259 260
273 273 272 273 273 273 273 274 274 274 275 275 275 276 276 276 277 278 278 277 276 274 273 271 271 270 269 268 268 267 267 267 266 266 265 264 264 264 264 264 263 263 263 263 264 266 266 267 268 268 268 267 267 267 268 269 268 267 265 264 264 263 261 259 257 256 255 254 254 254 253 252 251 250 249 249 248 247 247 247 247 249 252 255 258 260
274 274 274 273 273 272 273 274 275 275 274 274 275 276 277 277 277 277 278 277 276 275 273 272 270 269 268 267 266 266 266 266 266 266 265 264 263 263 263 263 263 264 264 264 265 266 267 267 267 266 266 267 269 271 272 271 269 267 266 265 264 261 259 258 257 257 255 254 252 250 249 248 249 249 249 249 249 249 249 249 250 251 253 255 257 259
Height
10583 10584 10587 10590 10591 10590 10589 10589 10591 10591 10592 10593 10594 10594 10595 10595 10597 10599 10601 10603 10604 10605 10606 10606 10606 10606 10608 10609 10607 10606 10605 10604 10604 10603 10602 10601 10602 10604 10604 10603 10603 10603 10603 10603 10603 10603 10605 10606 10606 10606 10606 10606 10608 10609 10611 10613 10615 10616 10617 10618 10618 10618 10619 10620 10621 10623 10624 10625 10626 10627 10628 10629 10631 10632 10633 10634 10635 10637 10638 10640 10640 10641 10643 10645 10647 10648
10578 10580 10584 10587 10586 10585 10584 10585 10586 10586 10587 10588 10588 10589 10590 10591 10592 10595 10598 10599 10600 10600 10600 10601 10601 10601 10603 10604 10603 10601 10601 10601 10600 10600 10598 10597 10598 10599 10599 10599 10600 10600 10600 10599 10599 10599 10600 10600 10601 10601 10601 10602 10603 10604 10605 10608 10610 10611 10612 10613 10614 10614 10614 10615 10616 10618 10619 10621 10622 10623 10624 10625 10626 10627 10629 10630 10632 10633 10635 10636 10637 10638 10640 10641 10643 10645
10572 10575 10580 10581 10580 10580 10580 10580 10581 10581 10581 10582 10583 10584 10584 10586 10588 10591 10594 10595 10596 10595 10595 10595 10595 10596 10597 10599 10599 10597 10596 10597 10597 10597 10595 10594 10595 10595 10595 10596 10597 10596 10596 10596 10595 10595 10595 10596 10596 10596 10597 10598 10598 10599 10601 10603 10605 10607 10608 10609 10610 10610 10611 10611 10612 10614 10615 10616 10617 10618 10619 10620 10622 10623 10625 10626 10628 10630 10632 10633 10634 10635 10636 10638 10640 10642
10568 10572 10575 10575 10574 10575 10575 10575 10575 10575 10576 10577 10578 10578 10579 10581 10583 10586 10589 10590 10591 10590 10590 10591 10590 10590 10591 10593 10595 10594 10592 10592 10593 10593 10592 10592 10592 10592 10592 10592 10593 10593 10592 10592 10592 10591 10591 10591 10592 10592 10593 10594 10594 10596 10598 10599 10601 10603 10604 10606 10606 10607 10607 10608 10609 10610 10612 10613 10614 10615 10616 10617 10618 10619 10621 10623 10624 10626 10628 10629 10631 10632 10632 10634 10636 10638
10565 10568 10569 10569 10570 10570 10570 10570 10569 10570 10570 10572 10573 10573 10573 10575 10578 10580 10582 10584 10585 10585 10586 10586 10586 10585 10585 10586 10588 10590 10588 10587 10588 10589 10589 10590 10590 10590 10590 10589 10590 10590 10588 10588 10587 10587 10587 10587 10588 10588 10589 10590 10591 10593 10595 10596 10598 10599 10600 10602 10603 10604 10605 10605 10606 10608 10609 10611 10611 10612 10613 10614 10615 10616 10618 10619 10621 10622 10624 10626 10627 10628 10629 10630 10632 10634
10562 10564 10564 10565 10565 10565 10565 10564 10564 10565 10565 10566 10567 10567 10568 10570 10572 10573 10575 10576 10578 10580 10581 10581 10580 10579 10578 10578 10580 10582 10583 10583 10584 10585 10586 10587 10588 10588 10587 10586 10585 10585 10583 10582 10582 10582 10583 10583 10584 10584 10585 10586 10588 10591 10593 10594 10595 10595 10596 10598 10600 10601 10601 10602 10604 10605 10607 10608 10608 10609 10610 10611 10612 10613 10614 10616 10617 10619 10620 10622 10623 10624 10626 10627 10628 10630
10558 10560 10559 10560 10560 10559 10559 10559 10559 10560 10560 10561 10561 10562 10563 10564 10566 10567 10567 10569 10571 10574 10575 10575 10575 10574 10573 10571 10572 10574 10576 10579 10580 10581 10583 10584 10584 10583 10583 10582 10581 10580 10579 10578 10577 10578 10579 10580 10580 10580 10581 10583 10585 10587 10589 10591 10592 10592 10593 10595 10596 10597 10598 10599 10601 10603 10604 10605 10605 10606 10607 10608 10609 10610 10611 10613 10614 10615 10617 10618 10620 10621 10623 10624 10625 10626
10553 10555 10555 10554 10554 10553 10553 10553 10555 10556 10555 10555 10556 10557 10558 10559 10560 10561 10561 10563 10565 10567 10569 10569 10569 10570 10568 10564 10564 10568 10570 10572 10574 10576 10578 10579 10579 10578 10577 10578 10577 10576 10575 10574 10573 10573 10574 10576 10576 10577 10578 10579 10581 10583 10585 10587 10588 10589 10590 10591 10592 10593 10594 10596 10598 10599 10601 10601 10602 10603 10604 10605 10606 10607 10608 10609 10610 10611 10613 10615 10617 10618 10620 10620 10622 10623
10548 10549 10550 10549 10548 10547 10548 10549 10550 10551 10550 10550 10551 10551 10553 10554 10555 10556 10557 10558 10560 10560 10561 10562 10563 10565 10564 10559 10558 10563 10565 10565 10568 10570 10571 10573 10573 10573 10573 10573 10571 10569 10570 10569 10568 10568 10570 10572 10572 10573 10575 10576 10577 10578 10580 10582 10583 10585 10586 10587 10588 10589 10591 10592 10594 10596 10597 10598 10598 10599 10601 10602 10602 10603 10604 10605 10606 10607 10609 10612 10613 10615 10616 10617 10619 10620
10542 10543 10544 10543 10541 10541 10543 10544 10544 10545 10545 10544 10545 10546 10547 10549 10550 10551 10552 10553 10554 10555 10554 10555 10558 10560 10561 10557 10555 10557 10558 10558 10561 10563 10564 10565 10566 10567 10567 10566 10565 10563 10563 10563 10563 10564 10566 10567 10568 10569 10570 10571 10572 10573 10575 10577 10579 10580 10581 10583 10584 10585 10586 10588 10590 10591 10593 10594 10595 10596 10597 10598 10599 10599 10600 10601 10602 10603 10605 10607 10609 10611 10612 10614 10615 10617
10535 10536 10537 10537 10536 10535 10537 10538 10538 10539 10539 10539 10539 10540 10542 10543 10545 10546 10547 10547 10549 10550 10548 10550 10553 10555 10556 10555 10552 10552 10551 10552 10555 10557 10558 10558 10559 10560 10560 10560 10560 10558 10556 10557 10559 10559 10561 10562 10563 10564 10564 10565 10566 10568 10570 10572 10574 10575 10576 10577 10579 10580 10582 10583 10585 10587 10588 10590 10591 10592 10593 10594 10595 10596 10596 10597 10598 10599 10601 10602 10604 10606 10607 10609 10611 10613
10529 10529 10530 10530 10530 10530 10531 10532 10532 10532 10533 10533 10534 10535 10536 10537 10539 10540 10540 10541 10543 10544 10543 10545 10548 10550 10551 10550 10548 10547 10546 10546 10548 10550 10551 10552 10551 10552 10553 10553 10554 10553 10551 10552 10554 10554 10555 10556 10557 10558 10559 10559 10561 10562 10564 10567 10569 10569 10570 10572 10574 10575 10577 10579 10580 10582 10583 10585 10587 10588 10589 10590 10591 10592 10593 10593 10594 10595 10596 10597 10599 10600 10602 10603 10605 10607
10523 10523 10523 10524 10523 10524 10525 10525 10526 10526 10527 10528 10528 10529 10530 10531 10532 10533 10533 10535 10537 10537 10538 10540 10542 10544 10545 10545 10544 10543 10542 10542 10542 10543 10544 10544 10543 10544 10545 10546 10547 10547 10546 10546 10548 10549 10549 10550 10551 10551 10552 10553 10554 10556 10558 10561 10562 10563 10564 10567 10568 10570 10572 10573 10575 10577 10579 10580 10582 10583 10585 10586 10587 10588 10589 10590 10590 10591 10592 10593 10594 10595 10596 10597 10599 10601
10515 10516 10517 10517 10517 10518 10519 10519 10519 10521 10521 10521 10521 10522 10523 10524 10525 10525 10526 10528 10530 10531 10533 10534 10535 10537 10538 10539 10538 10538 10539 10538 10537 10536 10537 10537 10536 10537 10538 10538 10539 10540 10540 10540 10542 10543 10543 10544 10545 10545 10545 10546 10548 10550 10552 10554 10556 10556 10558 10561 10563 10564 10566 10568 10570 10572 10573 10575 10577 10578 10580 10581 10583 10583 10585 10585 10586 10587 10588 10588 10589 10590 10590 10592 10593 10594
10509 10509 10510 10511 10511 10511 10511 10512 10513 10514 10515 10514 10515 10516 10516 10516 10517 10518 10519 10520 10522 10524 10526 10527 10529 10530 10530 10531 10532 10532 10533 10533 10532 10530 10529 10529 10530 10530 10530 10530 10530 10532 10533 10534 10535 10537 10537 10538 10538 10539 10539 10540 10542 10544 10545 10548 10549 10550 10552 10555 10557 10558 10560 10561 10563 10565 10567 10569 10571 10573 10574 10576 10577 10578 10580 10581 10581 10582 10583 10583 10584 10585 10585 10586 10587 10588
10503 10502 10504 10505 10505 10504 10504 10505 10506 10507 10507 10507 10508 10509 10508 10509 10510 10511 10512 10512 10514 10516 10519 10520 10521 10522 10523 10523 10525 10525 10526 10527 10527 10525 10523 10523 10523 10523 10522 10522 10522 10523 10525 10527 10528 10529 10531 10532 10532 10531 10532 10534 10536 10537 10539 10541 10542 10543 10544 10546 10549 10551 10552 10554 10556 10557 10559 10562 10564 10566 10568 10569 10571 10572 10574 10575 10576 10577 10578 10578 10579 10579 10580 10580 10581 10582
10497 10496 10497 10498 10499 10498 10497 10498 10498 10499 10498 10499 10500 10500 10500 10501 10502 10503 10504 10504 10506 10508 10510 10512 10513 10514 10515 10516 10517 10517 10518 10518 10519 10519 10518 10517 10516 10515 10514 10514 10514 10514 10516 10519 10520 10521 10524 10526 10525 10524 10524 10526 10528 10530 10532 10534 10535 10536 10537 10538 10541 10544 10545 10547 10547 10548 10550 10553 10555 10557 10559 10561 10563 10566 10567 10569 10570 10572 10572 10573 10574 10574 10574 10575 10575 10576
10492 10490 10490 10491 10492 10492 10491 10490 10490 10491 10490 10490 10491 10492 10492 10493 10494 10494 10495 10497 10498 10499 10501 10502 10503 10505 10507 10508 10508 10508 10508 10508 10509 10510 10511 10511 10510 10508 10507 10506 10506 10506 10508 10510 10512 10513 10515 10517 10518 10517 10517 10518 10520 10522 10524 10526 10527 10529 10530 10530 10533 10536 10537 10538 10539 10540 10542 10545 10547 10548 10550 10553 10555 10558 10560 10562 10564 10565 10567 10568 10568 10569 10569 10569 10570 10570
10486 10485 10483 10483 10484 10485 10485 10484 10483 10483 10483 10482 10482 10483 10484 10485 10486 10486 10487 10488 10489 10490 10492 10493 10494 10496 10499 10499 10499 10499 10498 10498 10499 10501 10503 10504 10504 10502 10500 10499 10499 10499 10500 10502 10504 10504 10505 10508 10510 10510 10509 10511 10512 10513 10515 10517 10519 10521 10522 10523 10525 10528 10529 10530 10531 10532 10534 10536 10538 10540 10541 10544 10547 10550 10552 10554 10556 10557 10559 10560 10561 10562 10563 10563 10564 10564
10479 10480 10478 10476 10475 10476 10477 10477 10476 10475 10475 10475 10475 10476 10476 10476 10477 10478 10479 10481 10481 10482 10484 10485 10485 10488 10489 10489 10489 10489 10489 10488 10489 10492 10494 10496 10496 10496 10495 10493 10492 10492 10492 10493 10495 10495 10495 10498 10502 10502 10501 10502 10504 10504 10505 10507 10509 10511 10513 10515 10516 10518 10520 10521 10522 10523 10525 10527 10529 10532 10534 10536 10539 10541 10543 10545 10546 10548 10550 10552 10553 10555 10556 10556 10557 10557
10472 10473 10472 10470 10468 10467 10468 10468 10468 10468 10468 10468 10468 10469 10469 10468 10468 10469 10472 10473 10474 10475 10476 10478 10479 10480 10479 10479 10480 10481 10480 10479 10480 10482 10485 10487 10487 10488 10487 10487 10485 10484 10483 10483 10485 10485 10485 10488 10493 10495 10493 10492 10493 10495 10496 10497 10499 10501 10503 10505 10507 10509 10511 10512 10514 10515 10517 10518 10520 10523 10525 10527 10530 10531 10533 10535 10536 10538 10540 10541 10544 10546 10547 10548 10549 10549
10465 10465 10465 10464 10461 10460 10460 10460 10460 10459 10460 10460 10460 10461 10461 10461 10461 10462 10464 10466 10467 10467 10468 10470 10472 10472 10470 10470 10470 10472 10472 10471 10470 10473 10475 10477 10479 10479 10479 10479 10478 10477 10476 10475 10475 10475 10476 10478 10483 10486 10486 10484 10483 10483 10485 10488 10490 10491 10494 10495 10497 10499 10500 10502 10504 10507 10508 10509 10510 10512 10515 10518 10520 10521 10523 10525 10527 10527 10529 10531 10534 10536 10537 10539 10540 10541
10457 10458 10458 10457 10455 10453 10453 10453 10452 10452 10452 10452 10451 10452 10452 10453 10454 10455 10456 10458 10459 10461 10462 10462 10464 10465 10463 10461 10461 10463 10463 10462 10462 10463 10465 10467 10469 10470 10470 10470 10470 10470 10469 10468 10467 10466 10467 10469 10473 10476 10477 10476 10475 10475 10476 10479 10481 10482 10484 10485 10486 10488 10490 10491 10494 10496 10498 10499 10499 10502 10505 10507 10509 10511 10514 10517 10517 10518 10519 10521 10524 10526 10528 10529 10531 10532
10449 10450 10451 10451 10449 10448 10447 10447 10446 10445 10446 10446 10445 10445 10444 10445 10445 10446 10448 10449 10451 10453 10453 10453 10457 10459 10455 10453 10454 10454 10455 10454 10454 10454 10455 10457 10459 10460 10461 10462 10462 10462 10462 10462 10461 10460 10460 10461 10464 10466 10468 10468 10468 10468 10468 10469 10472 10474 10475 10475 10476 10477 10478 10480 10482 10485 10487 10488 10489 10491 10495 10496 10497 10501 10505 10506 10506 10507 10509 10512 10515 10517 10519 10520 10521 10523
10441 10442 10444 10444 10443 10442 10441 10441 10440 10439 10439 10441 10440 10439 10438 10438 10437 10438 10439 10441 10443 10445 10443 10444 10448 10449 10447 10447 10447 10447 10447 10447 10446 10446 10446 10447 10449 10451 10452 10453 10454 10455 10455 10454 10454 10454 10454 10455 10456 10458 10459 10460 10461 10461 10461 10461 10463 10465 10467 10466 10466 10466 10467 10469 10472 10474 10476 10477 10479 10481 10483 10484 10485 10489 10493 10494 10495 10497 10498 10502 10505 10508 10509 10510 10511 10513
10434 10434 10435 10436 10437 10437 10435 10434 10434 10434 10434 10434 10434 10433 10432 10431 10431 10431 10431 10432 10435 10436 10435 10436 10438 10439 10438 10438 10438 10438 10440 10440 10439 10439 10439 10439 10440 10441 10442 10443 10445 10445 10446 10446 10447 10447 10447 10448 10449 10450 10452 10452 10452 10453 10453 10453 10454 10456 10458 10458 10457 10457 10457 10458 10461 10464 10464 10466 10468 10469 10471 10472 10474 10477 10479 10482 10484 10486 10488 10491 10494 10496 10498 10500 10501 10503
10427 10427 10427 10428 10428 10429 10429 10427 10427 10428 10428 10428 10427 10426 10426 10425 10424 10424 10424 10425 10424 10425 10428 10428 10426 10429 10431 10428 10428 10429 10431 10432 10433 10433 10432 10431 10431 10431 10432 10433 10434 10435 10436 10437 10438 10439 10439 10440 10441 10443 10444 10444 10444 10445 10444 10445 10445 10445 10447 10448 10449 10449 10449 10448 10450 10452 10453 10454 10456 10458 10459 10461 10463 10465 10467 10469 10472 10475 10477 10479 10481 10483 10486 10489 10492 10494
10420 10420 10419 10419 10420 10421 10421 10421 10420 10420 10420 10420 10420 10419 10418 10418 10418 10417 10416 10416 10414 10415 10420 10417 10414 10420 10422 10418 10419 10421 10422 10425 10426 10426 10425 10424 10423 10423 10424 10424 10424 10425 10426 10426 10428 10429 10430 10432 10432 10434 10435 10436 10436 10436 10436 10435 10436 10435 10436 10438 10439 10440 10440 10440 10441 10442 10443 10444 10446 10447 10448 10449 10452 10453 10455 10457 10459 10462 10466 10468 10469 10472 10475 10479 10483 10485
10411 10412 10412 10411 10411 10412 10413 10413 10413 10413 10413 10414 10413 10412 10410 10409 10410 10410 10408 10406 10404 10405 10409 10406 10405 10412 10413 10408 10409 10411 10413 10416 10417 10417 10417 10417 10416 10416 10415 10415 10416 10416 10416 10416 10417 10418 10420 10422 10423 10424 10425 10426 10426 10427 10426 10426 10426 10426 10427 10428 10429 10430 10430 10431 10432 10433 10433 10434 10435 10436 10437 10438 10440 10441 10443 10445 10447 10450 10453 10455 10458 10461 10464 10470 10475 10476
10403 10404 10404 10403 10404 10404 10404 10404 10404 10404 10405 10407 10406 10404 10402 10401 10401 10400 10398 10395 10393 10395 10398 10395 10398 10406 10404 10397 10396 10399 10401 10404 10406 10407 10408 10407 10407 10407 10406 10406 10407 10407 10408 10408 10407 10407 10408 10409 10411 10413 10414 10415 10416 10416 10416 10415 10415 10416 10417 10418 10419 10420 10420 10422 10423 10423 10423 10423 10424 10426 10427 10427 10428 10429 10431 10433 10435 10437 10440 10443 10448 10450 10454 10461 10463 10464
10395 10395 10396 10395 10396 10398 10395 10394 10395 10395 10396 10400 10400 10397 10395 10392 10389 10388 10386 10385 10384 10386 10388 10385 10391 10400 10394 10383 10383 10388 10389 10390 10392 10394 10396 10396 10397 10396 10396 10396 10397 10397 10398 10399 10399 10399 10398 10398 10399 10401 10402 10404 10404 10405 10405 10405 10405 10405 10406 10407 10409 10410 10411 10412 10413 10413 10414 10413 10413 10414 10415 10416 10417 10419 10420 10421 10423 10425 10428 10432 10436 10438 10445 10449 10446 10445
10385 10386 10387 10386 10388 10392 10388 10383 10384 10384 10387 10394 10395 10388 10382 10380 10379 10378 10377 10376 10375 10375 10376 10376 10383 10388 10381 10371 10373 10379 10379 10378 10378 10380 10382 10383 10383 10384 10385 10386 10387 10387 10388 10389 10390 10390 10390 10389 10389 10389 10390 10391 10392 10393 10393 10393 10394 10394 10395 10396 10398 10399 10401 10402 10403 10404 10404 10403 10403 10403 10403 10404 10406 10407 10409 10410 10412 10414 10417 10420 10423 10425 10431 10435 10432 10431
10375 10376 10376 10376 10379 10383 10380 10376 10374 10374 10379 10387 10384 10374 10369 10369 10369 10370 10369 10367 10364 10363 10365 10368 10372 10373 10369 10364 10363 10365 10367 10367 10366 10367 10368 10368 10369 10370 10372 10374 10376 10377 10378 10378 10379 10380 10380 10380 10379 10378 10378 10378 10380 10381 10381 10382 10382 10383 10384 10386 10387 10388 10389 10391 10393 10394 10394 10393 10393 10393 10392 10393 10395 10397 10398 10399 10401 10404 10406 10407 10409 10412 10418 10422 10423 10423
10365 10364 10365 10365 10368 10372 10371 10368 10366 10367 10372 10374 10368 10362 10361 10360 10358 10358 10357 10356 10355 10354 10355 10358 10359 10359 10358 10355 10353 10352 10354 10355 10354 10354 10355 10355 10356 10357 10359 10361 10364 10365 10366 10367 10368 10368 10369 10369 10368 10368 10367 10367 10368 10368 10369 10370 10371 10372 10373 10375 10376 10377 10378 10379 10380 10382 10383 10382 10382 10382 10382 10383 10385 10387 10387 10389 10391 10393 10395 10396 10397 10400 10404 10409 10411 10412
10356 10354 10353 10353 10355 10358 10360 10358 10357 10361 10364 10360 10355 10353 10352 10349 10347 10345 10344 10345 10345 10344 10345 10346 10348 10348 10346 10344 10342 10341 10340 10340 10340 10340 10342 10343 10343 10344 10346 10349 10350 10351 10353 10354 10355 10356 10356 10357 10357 10356 10356 10356 10357 10357 10357 10358 10359 10361 10362 10363 10365 10365 10366 10367 10368 10369 10369 10370 10370 10371 10372 10374 10376 10377 10378 10378 10380 10382 10384 10386 10388 10390 10392 10394 10398 10399
10348 10346 10344 10343 10342 10344 10346 10345 10346 10351 10352 10348 10345 10344 10341 10338 10336 10334 10333 10334 10334 10333 10332 10334 10335 10336 10334 10334 10333 10330 10328 10327 10325 10325 10327 10330 10330 10332 10334 10336 10337 10338 10339 10340 10342 10342 10342 10343 10344 10344 10344 10345 10346 10346 10346 10346 10347 10349 10350 10351 10351 10352 10353 10354 10355 10355 10355 10356 10358 10359 10361 10364 10366 10368 10368 10369 10371 10372 10373 10374 10376 10378 10380 10382 10385 10386
10339 10337 10336 10334 10333 10333 10333 10333 10334 10337 10338 10336 10333 10331 10329 10327 10325 10323 10323 10323 10323 10322 10321 10321 10321 10322 10322 10322 10322 10320 10319 10316 10313 10311 10313 10315 10316 10318 10320 10322 10323 10325 10325 10326 10328 10328 10328 10329 10330 10331 10332 10333 10333 10334 10334 10335 10336 10338 10339 10339 10339 10339 10340 10341 10343 10342 10341 10343 10345 10347 10350 10353 10355 10357 10358 10359 10361 10363 10365 10364 10364 10365 10367 10370 10373 10374
10328 10328 10326 10325 10324 10324 10322 10322 10323 10324 10325 10323 10319 10318 10317 10315 10313 10312 10311 10313 10314 10312 10311 10310 10309 10309 10309 10309 10309 10308 10307 10304 10301 10300 10302 10303 10303 10305 10307 10308 10310 10311 10311 10312 10313 10314 10314 10315 10317 10319 10320 10320 10320 10321 10322 10324 10326 10327 10328 10328 10327 10327 10328 10329 10329 10328 10329 10331 10334 10337 10339 10341 10343 10346 10347 10348 10350 10352 10355 10356 10356 10355 10355 10357 10360 10361
10316 10316 10316 10314 10314 10313 10311 10311 10312 10311 10311 10310 10307 10305 10303 10301 10300 10300 10300 10303 10304 10301 10299 10300 10299 10298 10298 10298 10297 10296 10294 10292 10290 10288 10290 10292 10292 10292 10294 10295 10296 10296 10297 10298 10299 10301 10302 10303 10305 10306 10307 10307 10307 10307 10309 10311 10313 10315 10316 10316 10316 10317 10317 10316 10314 10315 10318 10321 10323 10325 10328 10330 10332 10334 10336 10337 10339 10341 10344 10346 10347 10347 10346 10347 10347 10347
10303 10303 10304 10303 10303 10302 10300 10300 10301 10299 10298 10297 10294 10291 10290 10289 10288 10287 10288 10292 10292 10288 10287 10287 10286 10286 10287 10287 10286 10284 10282 10281 10279 10277 10278 10280 10280 10280 10281 10282 10282 10283 10284 10285 10286 10288 10290 10291 10293 10294 10295 10295 10295 10295 10296 10298 10300 10303 10305 10305 10306 10307 10305 10303 10303 10305 10308 10311 10313 10315 10318 10320 10321 10323 10325 10326 10328 10331 10333 10335 10335 10336 10337 10337 10335 10334
10289 10290 10290 10291 10290 10290 10290 10290 10290 10288 10285 10284 10281 10279 10279 10278 10276 10275 10277 10278 10277 10275 10274 10274 10273 10274 10276 10275 10275 10273 10271 10270 10269 10267 10266 10267 10269 10270 10270 10270 10271 10271 10272 10273 10274 10276 10278 10279 10281 10283 10283 10284 10284 10284 10284 10286 10290 10293 10294 10295 10296 10295 10291 10291 10293 10296 10297 10300 10302 10304 10307 10309 10310 10311 10313 10316 10318 10320 10322 10323 10324 10325 10326 10325 10323 10322
10276 10275 10276 10276 10277 10278 10278 10278 10278 10276 10274 10272 10270 10269 10269 10268 10266 10265 10265 10264 10263 10263 10263 10262 10261 10262 10263 10264 10263 10262 10260 10259 10259 10258 10256 10256 10257 10258 10258 10260 10261 10261 10261 10262 10263 10264 10267 10268 10269 10271 10272 10272 10274 10275 10275 10277 10281 10283 10283 10285 10285 10280 10278 10280 10283 10285 10286 10288 10291 10293 10296 10297 10298 10300 10302 10304 10307 10310 10311 10311 10313 10314 10314 10313 10312 10312
10265 10263 10263 10262 10262 10264 10265 10265 10265 10264 10263 10262 10261 10261 10260 10257 10255 10255 10254 10252 10251 10251 10252 10252 10251 10251 10251 10252 10251 10250 10249 10249 10248 10248 10248 10248 10248 10248 10248 10249 10251 10252 10252 10252 10253 10253 10256 10258 10259 10260 10261 10262 10263 10264 10265 10268 10271 10272 10272 10274 10271 10266 10267 10270 10272 10274 10276 10278 10281 10283 10286 10287 10287 10289 10291 10293 10297 10300 10300 10300 10301 10301 10302 10302 10302 10301
10255 10253 10252 10250 10248 10250 10252 10252 10251 10251 10252 10251 10251 10251 10249 10246 10244 10243 10244 10242 10240 10240 10242 10242 10241 10240 10240 10241 10240 10240 10240 10239 10238 10238 10239 10239 10239 10239 10239 10239 10240 10241 10241 10242 10243 10244 10246 10248 10249 10249 10250 10251 10251 10253 10255 10258 10261 10263 10263 10262 10258 10256 10259 10261 10263 10266 10268 10269 10271 10274 10275 10276 10277 10279 10281 10284 10287 10289 10288 10289 10290 10291 10290 10291 10291 10292
10244 10243 10243 10241 10238 10238 10239 10239 10237 10237 10238 10239 10240 10239 10238 10235 10233 10233 10234 10233 10230 10230 10232 10233 10230 10228 10228 10230 10231 10232 10232 10231 10230 10230 10229 10229 10229 10229 10230 10230 10231 10231 10231 10231 10232 10233 10235 10238 10239 10240 10241 10241 10241 10243 10246 10248 10251 10254 10254 10251 10248 10248 10250 10252 10255 10259 10260 10261 10262 10264 10265 10266 10268 10269 10272 10276 10278 10278 10277 10279 10280 10280 10280 10280 10280 10282
10234 10233 10234 10233 10231 10229 10230 10228 10224 10223 10224 10225 10226 10226 10225 10224 10223 10224 10225 10225 10222 10221 10221 10221 10220 10219 10219 10220 10222 10223 10222 10222 10221 10221 10220 10220 10220 10220 10220 10221 10221 10221 10221 10222 10221 10222 10224 10228 10230 10231 10232 10232 10232 10233 10236 10238 10242 10245 10244 10241 10239 10240 10242 10245 10249 10252 10253 10253 10254 10255 10256 10257 10258 10260 10264 10267 10268 10267 10267 10268 10270 10270 10269 10268 10269 10272
10225 10225 10224 10224 10223 10223 10222 10218 10213 10211 10212 10212 10212 10211 10211 10212 10213 10215 10216 10215 10214 10213 10211 10210 10211 10211 10210 10210 10211 10212 10212 10212 10212 10212 10211 10211 10212 10212 10211 10211 10211 10210 10211 10212 10212 10211 10213 10217 10220 10221 10223 10224 10224 10224 10227 10230 10232 10234 10234 10232 10232 10234 10237 10241 10244 10244 10244 10244 10244 10245 10246 10248 10249 10252 10255 10257 10258 10258 10258 10260 10261 10260 10258 10256 10259 10265
10218 10216 10214 10214 10214 10214 10211 10206 10203 10204 10204 10202 10199 10198 10198 10200 10202 10204 10205 10205 10205 10204 10203 10202 10202 10201 10201 10200 10200 10202 10203 10203 10203 10203 10203 10202 10202 10202 10201 10201 10202 10202 10202 10202 10202 10202 10205 10208 10210 10212 10214 10216 10216 10216 10218 10220 10221 10223 10225 10225 10226 10229 10231 10234 10234 10234 10233 10233 10234 10235 10237 10239 10242 10245 10246 10247 10248 10249 10250 10252 10252 10250 10248 10249 10253 10258
10209 10208 10206 10206 10205 10202 10199 10195 10195 10197 10197 10192 10188 10188 10189 10190 10191 10192 10194 10194 10195 10194 10194 10194 10193 10193 10192 10191 10190 10191 10193 10194 10193 10193 10194 10193 10192 10190 10190 10191 10193 10194 10193 10193 10193 10195 10198 10199 10201 10202 10205 10206 10206 10206 10208 10210 10213 10216 10218 10219 10220 10222 10223 10224 10223 10222 10222 10223 10225 10227 10229 10232 10234 10235 10236 10237 10238 10239 10241 10242 10242 10241 10242 10244 10247 10250
10200 10198 10197 10197 10196 10193 10188 10185 10185 10189 10189 10182 10177 10177 10180 10182 10183 10184 10183 10183 10183 10183 10183 10184 10183 10182 10182 10182 10180 10181 10183 10184 10183 10183 10184 10184 10182 10180 10181 10181 10183 10185 10185 10185 10186 10188 10189 10191 10192 10194 10195 10194 10194 10196 10200 10203 10205 10207 10209 10210 10211 10212 10212 10212 10212 10212 10213 10215 10218 10220 10221 10222 10223 10224 10225 10227 10230 10232 10233 10235 10236 10237 10238 10240 10242 10244
10189 10188 10187 10188 10187 10184 10180 10177 10177 10179 10179 10174 10168 10168 10170 10171 10174 10176 10174 10171 10170 10170 10171 10173 10174 10172 10171 10171 10172 10173 10175 10175 10174 10174 10175 10175 10172 10171 10171 10172 10174 10176 10177 10177 10179 10180 10181 10182 10183 10184 10184 10184 10186 10190 10192 10194 10195 10197 10199 10201 10201 10201 10202 10203 10203 10204 10205 10207 10209 10209 10209 10211 10213 10216 10218 10220 10223 10226 10227 10228 10230 10232 10233 10235 10237 10239